Location: St. Louis
(38.6270°N, 90.1994°W)
Time: 09:13:14
(UTC-06:00)

Vanguard 2 Rocket - Pass Details

Date: 09 December 2021
Orbit: 553 x 3325 km, 32.9° (Epoch: 23 January)

Event Time Altitude Azimuth Distance (km) Brightness Sun altitude
Rises 17:25:25 0° 252° (WSW) 2,876 11.9 -8.9°
Reaches altitude 10° 17:27:25 10° 246° (WSW) 2,103 10.5 -9.3°
Maximum altitude 17:31:59 49° 171° (S) 1,112 7.4 -10.1°
Drops below altitude 10° 17:39:13 10° 99° (E) 3,314 9.2 -11.4°
Enters shadow 17:39:39 - 98° (E) 3,474 9.3 -11.5°
Sets 17:43:09 0° 95° (E) 4,751 - -12.2°
